This is the latest recevied weather packets stored in our database for station/object KI8L. If no packets are shown the sender has not sent any weather packets the latest 10 day(s).
| Time | Temp. | Humidity | Pressure | Rain* | Wind** | Luminosity | Snow |
|---|---|---|---|---|---|---|---|
| 1777413460 | 20° C | 72% | 1014.8 hPa | 0 mm | - | 250 W/m² | - |
| 1777413157 | 20.56° C | 71% | 1015 hPa | 0 mm | - | 266 W/m² | - |
| 1777412852 | 20.56° C | 71% | 1015.1 hPa | 0 mm | - | 288 W/m² | - |
| 1777412552 | 20.56° C | 72% | 1015.1 hPa | 0 mm | - | 252 W/m² | - |
| 1777412249 | 20.56° C | 71% | 1014.9 hPa | 0 mm | - | 315 W/m² | - |
| 1777411945 | 20.56° C | 71% | 1014.9 hPa | 0 mm | - | 323 W/m² | - |
| 1777411644 | 20.56° C | 70% | 1014.9 hPa | 0 mm | - | 317 W/m² | - |
| 1777411339 | 21.11° C | 71% | 1015 hPa | 0 mm | - | 356 W/m² | - |
| 1777411039 | 21.11° C | 71% | 1014.8 hPa | 0 mm | - | 369 W/m² | - |
| 1777410739 | 20.56° C | 71% | 1014.7 hPa | 0 mm | - | 373 W/m² | - |
| 1777410433 | 20.56° C | 70% | 1014.7 hPa | 0 mm | - | 390 W/m² | - |
| 1777410133 | 21.11° C | 70% | 1014.8 hPa | 0 mm | - | 407 W/m² | - |
| 1777409833 | 21.11° C | 71% | 1014.7 hPa | 0 mm | - | 432 W/m² | - |
| 1777409529 | 21.11° C | 71% | 1014.9 hPa | 0 mm | - | 398 W/m² | - |
| 1777409224 | 21.11° C | 69% | 1014.6 hPa | 0 mm | - | 447 W/m² | - |
| 1777408920 | 21.11° C | 71% | 1014.7 hPa | 0 mm | - | 465 W/m² | - |
| 1777408617 | 21.11° C | 69% | 1014.7 hPa | 0 mm | - | 490 W/m² | - |
| 1777408313 | 21.67° C | 68% | 1014.7 hPa | 0 mm | - | 487 W/m² | - |
| 1777408012 | 21.11° C | 71% | 1014.8 hPa | 0 mm | - | 500 W/m² | - |
| 1777407709 | 20.56° C | 70% | 1014.8 hPa | 0 mm | - | 530 W/m² | - |
| 1777407404 | 21.11° C | 71% | 1014.8 hPa | 0 mm | - | 559 W/m² | - |
| 1777407100 | 21.67° C | 70% | 1014.7 hPa | 0 mm | - | 563 W/m² | - |
| 1777406795 | 21.67° C | 70% | 1014.7 hPa | 0 mm | - | 558 W/m² | - |
| 1777406491 | 21.11° C | 71% | 1014.7 hPa | 0 mm | - | 519 W/m² | - |
| 1777406187 | 21.11° C | 71% | 1014.6 hPa | 0 mm | - | 592 W/m² | - |
* Rain latest hour (hover to see other rain measurements)
** Current wind speed in m/s (hover to see current wind gust speed)